When you browse on this site, cookies collect data to enhance your experience and personalize the content and advertising you see.
Visit our Privacy Policy to learn more. By continuing to use the site, you agree to this use of cookies and data.
  • In Portugal
  • List of Countries
  • For 7 days
  • Water Temperature
  • Weather Map
  • Weather Widgets
  • user-avatar
    Login

    Hourly Weather Veselyy

    Today, 17 September, Tuesday

    Time Temperature Precipitation Wind Pressure Humidity
    00:00 +7°C° 0 mm 4 mps 734 mmHg 93%
    01:00 +7°C° 0 mm 5 mps 735 mmHg 93%
    02:00 +7°C° 0 mm 5 mps 735 mmHg 94%
    03:00 +7°C° 0 mm 5 mps 735 mmHg 94%
    04:00 +7°C° 0 mm 5 mps 734 mmHg 95%
    05:00 +7°C° 0 mm 5 mps 734 mmHg 95%
    06:00 +7°C° 0 mm 5 mps 734 mmHg 96%
    07:00 +8°C° 0 mm 5 mps 734 mmHg 92%
    08:00 +9°C° 0 mm 6 mps 734 mmHg 88%
    09:00 +10°C° 0 mm 6 mps 734 mmHg 84%
    10:00 +10°C° 0.1 mm 6 mps 734 mmHg 82%
    11:00 +10°C° 0.1 mm 6 mps 734 mmHg 80%
    12:00 +11°C° 0.1 mm 6 mps 734 mmHg 77%
    13:00 +11°C° 0 mm 6 mps 734 mmHg 74%
    14:00 +13°C° 0 mm 6 mps 734 mmHg 70%
    15:00 +13°C° 0 mm 6 mps 734 mmHg 67%
    16:00 +12°C° 0 mm 5 mps 734 mmHg 69%
    17:00 +11°C° 0 mm 4 mps 733 mmHg 72%
    18:00 +10°C° 0 mm 3 mps 733 mmHg 75%
    19:00 +10°C° 0 mm 3 mps 734 mmHg 77%
    20:00 +9°C° 0 mm 3 mps 734 mmHg 78%
    21:00 +7°C° 0 mm 4 mps 734 mmHg 80%
    22:00 +7°C° 0 mm 3 mps 734 mmHg 82%
    23:00 +7°C° 0 mm 3 mps 734 mmHg 84%

    Tomorrow, 18 September, Wednesday

    Time Temperature Precipitation Wind Pressure Humidity
    00:00 +7°C° 0 mm 3 mps 734 mmHg 86%
    01:00 +5°C° 0 mm 3 mps 735 mmHg 87%
    02:00 +5°C° 0 mm 3 mps 735 mmHg 89%
    03:00 +4°C° 0 mm 3 mps 735 mmHg 91%
    04:00 +4°C° 0 mm 3 mps 735 mmHg 90%
    05:00 +4°C° 0 mm 3 mps 735 mmHg 90%
    06:00 +4°C° 0 mm 3 mps 735 mmHg 89%
    07:00 +6°C° 0 mm 4 mps 735 mmHg 84%
    08:00 +7°C° 0 mm 4 mps 735 mmHg 78%
    09:00 +10°C° 0 mm 4 mps 735 mmHg 72%
    10:00 +9°C° 0.4 mm 5 mps 735 mmHg 72%
    11:00 +10°C° 0.4 mm 5 mps 735 mmHg 71%
    12:00 +10°C° 0.4 mm 6 mps 735 mmHg 70%
    13:00 +12°C° 0.3 mm 5 mps 735 mmHg 69%
    14:00 +12°C° 0.3 mm 5 mps 735 mmHg 69%
    15:00 +12°C° 0.3 mm 4 mps 735 mmHg 68%
    16:00 +11°C° 0.1 mm 3 mps 734 mmHg 72%
    17:00 +10°C° 0.1 mm 2 mps 734 mmHg 76%
    18:00 +9°C° 0.1 mm 2 mps 734 mmHg 81%
    19:00 +8°C° 0 mm 2 mps 733 mmHg 82%
    20:00 +8°C° 0 mm 2 mps 733 mmHg 84%
    21:00 +8°C° 0 mm 2 mps 732 mmHg 85%
    22:00 +7°C° 0.1 mm 2 mps 732 mmHg 88%
    23:00 +7°C° 0.1 mm 2 mps 731 mmHg 90%

    Day after tomorrow, 19 September, Thursday

    Time Temperature Precipitation Wind Pressure Humidity
    00:00 +7°C° 0.1 mm 2 mps 730 mmHg 92%
    01:00 +7°C° 0.2 mm 2 mps 729 mmHg 93%
    02:00 +7°C° 0.2 mm 2 mps 729 mmHg 93%
    03:00 +7°C° 0.2 mm 2 mps 728 mmHg 94%
    04:00 +7°C° 0.2 mm 3 mps 729 mmHg 93%
    05:00 +7°C° 0.2 mm 3 mps 729 mmHg 93%
    06:00 +5°C° 0.2 mm 4 mps 730 mmHg 93%
    07:00 +6°C° 0 mm 4 mps 731 mmHg 89%
    08:00 +7°C° 0 mm 4 mps 733 mmHg 86%
    09:00 +8°C° 0 mm 4 mps 734 mmHg 82%
    10:00 +8°C° 0.3 mm 5 mps 735 mmHg 81%
    11:00 +9°C° 0.3 mm 5 mps 736 mmHg 79%
    12:00 +10°C° 0.3 mm 6 mps 736 mmHg 78%
    13:00 +9°C° 0.3 mm 6 mps 737 mmHg 78%
    14:00 +9°C° 0.3 mm 6 mps 738 mmHg 78%
    15:00 +9°C° 0.3 mm 5 mps 739 mmHg 77%
    16:00 +8°C° 0.3 mm 5 mps 739 mmHg 81%
    17:00 +8°C° 0.3 mm 4 mps 740 mmHg 84%
    18:00 +8°C° 0.3 mm 3 mps 741 mmHg 88%
    19:00 +7°C° 0.1 mm 3 mps 741 mmHg 90%
    20:00 +7°C° 0.1 mm 3 mps 742 mmHg 92%
    21:00 +5°C° 0.1 mm 3 mps 742 mmHg 94%
    22:00 +6°C° 0.1 mm 2 mps 742 mmHg 94%
    23:00 +6°C° 0.1 mm 2 mps 743 mmHg 93%

    20 September, Friday

    Time Temperature Precipitation Wind Pressure Humidity
    00:00 +7°C° 0.1 mm 1 mps 743 mmHg 93%
    01:00 +7°C° 0.2 mm 1 mps 743 mmHg 93%
    02:00 +7°C° 0.2 mm 1 mps 744 mmHg 93%
    03:00 +5°C° 0.2 mm 0 mps 744 mmHg 93%
    04:00 +6°C° 0.2 mm 1 mps 744 mmHg 93%
    05:00 +7°C° 0.2 mm 1 mps 744 mmHg 92%
    06:00 +7°C° 0.2 mm 1 mps 744 mmHg 92%
    07:00 +7°C° 0.2 mm 1 mps 744 mmHg 90%
    08:00 +7°C° 0.2 mm 2 mps 744 mmHg 88%
    09:00 +7°C° 0.2 mm 2 mps 745 mmHg 87%
    10:00 +8°C° 0.3 mm 3 mps 745 mmHg 83%
    11:00 +9°C° 0.3 mm 3 mps 745 mmHg 79%
    12:00 +9°C° 0.3 mm 3 mps 745 mmHg 75%
    13:00 +10°C° 0.1 mm 3 mps 745 mmHg 72%
    14:00 +10°C° 0.1 mm 3 mps 745 mmHg 68%
    15:00 +10°C° 0.1 mm 2 mps 745 mmHg 65%
    16:00 +10°C° 0.1 mm 2 mps 745 mmHg 69%
    17:00 +9°C° 0.1 mm 2 mps 745 mmHg 74%
    18:00 +9°C° 0.1 mm 1 mps 745 mmHg 79%
    19:00 +9°C° 0.1 mm 1 mps 745 mmHg 82%
    20:00 +7°C° 0.1 mm 2 mps 745 mmHg 85%
    21:00 +7°C° 0.1 mm 2 mps 745 mmHg 87%
    22:00 +7°C° 0.4 mm 2 mps 745 mmHg 89%
    23:00 +6°C° 0.4 mm 2 mps 745 mmHg 90%

    21 September, Saturday

    Time Temperature Precipitation Wind Pressure Humidity
    00:00 +6°C° 0.4 mm 2 mps 745 mmHg 92%
    01:00 +5°C° 0.1 mm 2 mps 745 mmHg 93%
    02:00 +4°C° 0.1 mm 2 mps 745 mmHg 94%
    03:00 +4°C° 0.1 mm 2 mps 745 mmHg 96%
    04:00 +4°C° 0 mm 2 mps 745 mmHg 95%
    05:00 +4°C° 0 mm 2 mps 745 mmHg 95%
    06:00 +4°C° 0 mm 2 mps 745 mmHg 94%
    07:00 +4°C° 0.1 mm 3 mps 745 mmHg 91%
    08:00 +4°C° 0.1 mm 3 mps 745 mmHg 88%
    09:00 +4°C° 0.1 mm 3 mps 745 mmHg 84%
    10:00 +5°C° 0.1 mm 3 mps 745 mmHg 79%
    11:00 +7°C° 0.1 mm 3 mps 745 mmHg 74%
    12:00 +8°C° 0.1 mm 3 mps 745 mmHg 68%
    13:00 +8°C° 0.2 mm 3 mps 745 mmHg 68%
    14:00 +8°C° 0.2 mm 3 mps 745 mmHg 67%
    15:00 +9°C° 0.2 mm 3 mps 745 mmHg 66%
    16:00 +7°C° 0.2 mm 3 mps 745 mmHg 72%
    17:00 +5°C° 0.2 mm 3 mps 745 mmHg 77%
    18:00 +5°C° 0.2 mm 2 mps 745 mmHg 82%
    19:00 +5°C° 0 mm 2 mps 746 mmHg 83%
    20:00 +5°C° 0 mm 2 mps 746 mmHg 83%
    21:00 +5°C° 0 mm 2 mps 746 mmHg 83%
    22:00 +4°C° 0 mm 2 mps 746 mmHg 83%
    23:00 +4°C° 0 mm 2 mps 747 mmHg 84%

    22 September, Sunday

    Time Temperature Precipitation Wind Pressure Humidity
    00:00 +3°C° 0 mm 2 mps 747 mmHg 85%
    01:00 +3°C° 0 mm 2 mps 747 mmHg 85%
    02:00 +2°C° 0 mm 2 mps 747 mmHg 86%
    03:00 +2°C° 0 mm 2 mps 747 mmHg 86%
    04:00 +1°C° 0 mm 2 mps 747 mmHg 87%
    05:00 +1°C° 0 mm 2 mps 747 mmHg 88%
    06:00 -1°C° 0 mm 2 mps 748 mmHg 89%
    07:00 +2°C° 0 mm 2 mps 748 mmHg 84%
    08:00 +4°C° 0 mm 2 mps 748 mmHg 78%
    09:00 +5°C° 0 mm 2 mps 749 mmHg 72%
    10:00 +5°C° 0 mm 3 mps 749 mmHg 66%
    11:00 +7°C° 0 mm 3 mps 749 mmHg 60%
    12:00 +9°C° 0 mm 3 mps 749 mmHg 54%
    13:00 +9°C° 0 mm 3 mps 749 mmHg 53%
    14:00 +9°C° 0 mm 3 mps 749 mmHg 51%
    15:00 +9°C° 0 mm 3 mps 749 mmHg 50%
    16:00 +8°C° 0 mm 2 mps 749 mmHg 56%
    17:00 +6°C° 0 mm 2 mps 749 mmHg 61%
    18:00 +5°C° 0 mm 2 mps 749 mmHg 67%
    19:00 +4°C° 0 mm 2 mps 749 mmHg 68%
    20:00 +4°C° 0 mm 2 mps 750 mmHg 70%
    21:00 +3°C° 0 mm 2 mps 750 mmHg 72%
    22:00 +3°C° 0 mm 2 mps 750 mmHg 73%
    23:00 +3°C° 0 mm 2 mps 750 mmHg 74%
    Show more